Find Starlink 31446

NORAD ID: 59315 Int'l Des: 2024-056 Owner: SPXS Country: US Constellation: starlink operational
LEOCIRCULAR

Live Position

Loading 3D Globe...

About Starlink 31446

Description loading...

Upcoming Passes

Passes for default location (London). Set your location on the main map for personalized predictions.

Altitude History

Loading altitude history...

Two-Line Element Set

1 59315U 24056V 26133.33131244 -.00000390 00000-0 -46449-5 0 9992
2 59315 43.0022 225.3711 0001470 266.8157 93.2527 15.27576430121040
Epoch: May 13, 2026 • Age: 12 hours

Current Status

Altitude 482.9 km
Velocity 7.63 km/s
Sub-Earth Point -0.76°S, 124.04°W
Launch Date Mar 24, 2024
Age 2.1 years
Type internet

Technical Details

Classification Payload
Mass 730.00 kg
Dry Mass 700.00 kg
Total Mass 730.00 kg
Length 0.30 m
Diameter 4.10 m
Span 29.00 m
Shape Box + pan
Manufacturer SPXS
Bus Type Starlink V2M
Phase Status In Orbit
Owner/State SPXS/US

Most Searched